Tracking 19242 objects as of 19-Sep-2018
HD Live streaming from Space Station
objects crossing your sky now

FENGYUN 1C DEB

Track FENGYUN 1C DEB now!
10-day predictions


NORAD ID: 32166
Int'l Code: 1999-025CTL
Perigee: 502.1 km
Apogee: 720.2 km
Inclination: 98.2 °
Period: 96.8 minutes
Semi major axis: 6982 km
RCS: 0.0014 m2 (small)
Launch date: May 10, 1999
Source: People's Republic of China (PRC)
Launch site: Taiyaun Space Center, China (TSC)

Note: This is SATELLITE DEBRIS
aabbcc
Your satellite tracking list
Your tracking list is empty




NASA's NSSDC Master Catalog

Two Line Element Set (TLE):
1 32166U 99025CTL 18262.29061922  .00002715  00000-0  24193-3 0  9990
2 32166  98.2008  21.2448 0156176 215.8667 143.1985 14.88064692601555
Source of the keplerian elements: AFSPC